Date String (YYYY-MM-DD hh:mm:ss) UTC,Instrument flags,Ambient pressure (hPa),Sample flow (lpm),Bypass flow (lpm),Sample temperature (°C),Ambient temperature (°C),ASC tube jacket temperature (°C),LED temperature (°C),Box temperature (°C),Sample RH (%),Span deviation,Mass concentration (μg/m³),Mass concentration (μg/m³),Mass concentration (μg/m³)
DateTimeUTC,F1_M11,P_M11,Q1_M11,Q2_M11,T1_M11,T2_M11,T3_M11,T4_M11,T5_M11,U1_M11,ZSPAN_M11,X0_M11,X2_M11,X1_M11
2021-10-20 13:00:00,,0830.1,5.02,0.00,22.9,22.1,00.0,32.0,24.8,19.6,0000.0,0010.39,0006.76,0006.42
2021-10-20 13:01:00,,0830.1,4.99,0.00,22.9,22.2,00.0,32.0,24.8,19.6,0000.0,0010.66,0006.94,0006.55
2021-10-20 13:02:00,,0830.1,5.00,0.00,22.9,22.1,00.0,32.0,24.8,19.6,0000.3,0010.70,0007.06,0006.68
2021-10-20 13:03:00,,0830.2,5.00,0.00,22.9,22.1,00.0,32.0,24.7,19.7,0000.0,0010.81,0007.21,0006.82
2021-10-20 13:04:00,,0830.1,4.99,0.00,22.9,22.1,00.0,32.0,24.6,19.7,0000.2,0010.72,0007.38,0006.98
2021-10-20 13:05:00,,0830.1,5.00,0.00,22.8,22.0,00.0,32.0,24.6,19.8,0000.1,0010.09,0007.55,0007.15
2021-10-20 13:06:00,,0830.1,5.00,0.00,22.8,22.0,00.0,32.0,24.6,19.9,0000.0,0010.28,0007.73,0007.31
2021-10-20 13:07:00,,0830.1,5.00,0.00,22.8,21.9,00.0,32.0,24.6,19.9,-000.7,0010.37,0007.88,0007.47
2021-10-20 13:08:00,,0830.2,5.00,0.00,22.7,21.9,00.0,31.9,24.5,20.0,-000.5,0010.52,0008.05,0007.63
2021-10-20 13:09:00,,0830.2,5.00,0.00,22.7,21.9,00.0,31.9,24.5,20.0,-000.4,0010.72,0008.20,0007.74
2021-10-20 13:10:00,,0830.2,5.01,0.00,22.7,21.9,00.0,31.9,24.4,20.0,-000.7,0010.82,0008.27,0007.82
2021-10-20 13:11:00,,0830.1,5.01,0.00,22.7,21.9,00.0,31.9,24.4,20.0,-000.7,0011.05,0008.35,0007.90
2021-10-20 13:12:00,,0830.1,4.99,0.00,22.6,21.9,00.0,31.9,24.4,20.0,-000.4,0011.27,0008.40,0007.96
2021-10-20 13:13:00,,0830.2,5.00,0.00,22.6,21.8,00.0,31.9,24.4,20.1,-000.5,0011.87,0008.47,0008.03
2021-10-20 13:14:00,,0830.2,5.00,0.00,22.6,21.8,00.0,31.8,24.3,20.3,-000.4,0012.01,0008.52,0008.09
2021-10-20 13:15:00,,0830.1,5.00,0.00,22.6,21.8,00.0,31.8,24.3,22.3,-000.7,0012.10,0008.56,0008.14
2021-10-20 13:16:00,,0830.1,4.98,0.00,22.5,21.7,00.0,31.8,24.3,23.5,-001.1,0012.57,0008.58,0008.17
2021-10-20 13:17:00,,0830.2,5.00,0.00,22.5,21.7,00.0,31.8,24.2,21.6,-001.1,0012.80,0008.58,0008.19
2021-10-20 13:18:00,,0830.2,5.02,0.00,22.5,21.7,00.0,31.8,24.2,20.9,-000.8,0012.87,0008.59,0008.20
2021-10-20 13:19:00,,0830.2,4.98,0.00,22.4,21.7,00.0,31.7,24.1,20.8,-000.8,0013.75,0008.59,0008.20
2021-10-20 13:20:00,,0830.3,5.01,0.00,22.4,21.6,00.0,31.7,24.1,20.8,-001.2,0014.11,0008.53,0008.17
2021-10-20 13:21:00,,0830.3,4.99,0.00,22.4,21.6,00.0,31.7,24.1,20.8,-001.3,0014.15,0008.58,0008.20
2021-10-20 13:22:00,,0830.3,5.01,0.00,22.4,21.6,00.0,31.7,24.2,20.9,-001.1,0014.09,0008.64,0008.25
2021-10-20 13:23:00,,0830.4,4.99,0.00,22.4,21.6,00.0,31.6,24.1,20.9,-001.1,0013.96,0008.66,0008.28
2021-10-20 13:24:00,,0830.4,5.00,0.00,22.4,21.7,00.0,31.6,24.2,20.9,-000.8,0013.34,0008.68,0008.27
2021-10-20 13:25:00,,0830.4,5.02,0.00,22.4,21.7,00.0,31.6,24.2,20.9,-000.7,0013.61,0008.69,0008.25
2021-10-20 13:26:00,,0830.3,4.99,0.00,22.4,21.7,00.0,31.6,24.2,20.9,-000.4,0013.87,0008.72,0008.24
2021-10-20 13:27:00,,0830.4,4.99,0.00,22.4,21.7,00.0,31.6,24.2,21.0,0000.0,0013.54,0008.69,0008.22
2021-10-20 13:28:00,,0830.4,5.01,0.00,22.4,21.8,00.0,31.6,24.2,21.0,0000.3,0013.10,0008.66,0008.19
2021-10-20 13:29:00,,0830.4,4.99,0.00,22.4,21.8,00.0,31.6,24.3,21.0,0000.5,0013.13,0008.64,0008.16
2021-10-20 13:30:00,,0830.5,5.00,0.00,22.5,21.8,00.0,31.6,24.3,20.9,0001.0,0012.68,0008.57,0008.12
2021-10-20 13:31:00,,0830.5,5.01,0.00,22.5,21.8,00.0,31.6,24.3,20.9,0001.1,0011.71,0008.55,0008.10
2021-10-20 13:32:00,,0830.4,5.00,0.00,22.5,21.9,00.0,31.6,24.4,21.0,0000.9,0011.62,0008.50,0008.08
2021-10-20 13:33:00,,0830.4,4.99,0.00,22.6,21.9,00.0,31.6,24.4,21.1,0000.5,0011.54,0008.45,0008.04
2021-10-20 13:34:00,,0830.5,5.01,0.00,22.6,21.9,00.0,31.6,24.4,21.2,-000.2,0011.51,0008.38,0008.00
2021-10-20 13:35:00,,0830.6,5.01,0.00,22.6,21.9,00.0,31.6,24.5,21.3,-000.2,0011.42,0008.32,0007.96
2021-10-20 13:36:00,,0830.6,4.99,0.00,22.6,22.0,00.0,31.6,24.5,21.3,0000.3,0011.97,0008.26,0007.91
2021-10-20 13:37:00,,0830.5,5.00,0.00,22.7,22.0,00.0,31.6,24.5,21.4,-000.2,0011.73,0008.19,0007.85
2021-10-20 13:38:00,,0830.5,5.00,0.00,22.7,22.0,00.0,31.7,24.5,21.5,-000.7,0011.80,0008.16,0007.80
2021-10-20 13:39:00,,0830.5,5.01,0.00,22.7,22.0,00.0,31.7,24.6,21.6,-000.4,0011.70,0008.08,0007.72
2021-10-20 13:40:00,,0830.6,5.00,0.00,22.7,22.1,00.0,31.7,24.6,21.6,-001.1,0011.57,0007.93,0007.57
2021-10-20 13:41:00,,0830.6,4.99,0.00,22.7,22.1,00.0,31.7,24.6,21.7,-001.6,0011.28,0007.68,0007.34
2021-10-20 13:42:00,,0830.6,5.00,0.00,22.8,22.1,00.0,31.7,24.6,21.7,-001.2,0011.09,0007.51,0007.15
2021-10-20 13:43:00,,0830.6,4.99,0.00,22.8,22.1,00.0,31.8,24.7,21.8,-001.1,0011.00,0007.38,0007.01
2021-10-20 13:44:00,,0830.6,5.01,0.00,22.8,22.1,00.0,31.8,24.7,21.9,-001.2,0010.83,0007.22,0006.85
2021-10-20 13:45:00,,0830.6,4.99,0.00,22.8,22.1,00.0,31.8,24.7,21.9,-000.6,0010.59,0007.04,0006.66
2021-10-20 13:46:00,,0830.6,5.00,0.00,22.8,22.1,00.0,31.8,24.7,22.0,0000.0,0010.41,0006.78,0006.39
2021-10-20 13:47:00,,0830.6,5.00,0.00,22.8,22.1,00.0,31.8,24.7,22.1,0000.0,0009.51,0006.54,0006.16
2021-10-20 13:48:00,,0830.6,5.00,0.00,22.8,22.1,00.0,31.8,24.7,22.2,0000.0,0008.83,0006.31,0005.97
2021-10-20 13:49:00,,0830.6,5.00,0.00,22.8,22.1,00.0,31.8,24.7,22.2,0000.0,0008.57,0006.05,0005.74
2021-10-20 13:50:00,,0830.7,4.99,0.00,22.9,22.1,00.0,31.8,24.7,22.3,0000.0,0008.31,0005.84,0005.55
2021-10-20 13:51:00,,0830.8,5.02,0.00,22.9,22.1,00.0,31.9,24.8,22.3,0000.0,0008.05,0005.71,0005.43
2021-10-20 13:52:00,,0830.8,4.99,0.00,22.9,22.1,00.0,31.9,24.8,22.4,0000.0,0008.03,0005.69,0005.42
2021-10-20 13:53:00,,0830.8,5.01,0.00,22.9,22.1,00.0,31.9,24.8,22.5,0000.0,0007.92,0005.60,0005.34
2021-10-20 13:54:00,,0830.8,5.01,0.00,22.9,22.1,00.0,31.9,24.8,22.6,0000.0,0007.75,0005.45,0005.21
2021-10-20 13:55:00,,0830.7,5.00,0.00,22.9,22.2,00.0,31.9,24.8,22.7,0000.0,0007.64,0005.31,0005.08
2021-10-20 13:56:00,,0830.8,5.01,0.00,22.9,22.2,00.0,31.9,24.8,22.7,0000.0,0007.47,0005.16,0004.94
2021-10-20 13:57:00,,0830.8,5.00,0.00,22.9,22.2,00.0,31.9,24.8,22.7,0000.0,0007.35,0005.13,0004.92
2021-10-20 13:58:00,,0830.8,5.00,0.00,22.9,22.2,00.0,31.9,24.8,22.7,0000.0,0007.16,0005.08,0004.89
2021-10-20 13:59:00,,0830.7,5.01,0.00,22.9,22.2,00.0,31.9,24.8,22.5,0000.0,0007.13,0005.03,0004.82
